カタログに戻る

SL-16 DEB

運用中LEO
NORAD 24284·DEBRIS·🇷🇺 Russia

打ち上げ Oct 31, 1995 から Baikonur Cosmodrome

Loading…

次のパス (今後24時間)

TLE

最新Source: Space-Track

元期: Sep 14, 2026, 13:13 UTC

1 24284U 95058G   26257.55128898  .00000307  00000-0  16531-3 0  9994
2 24284  70.8616 210.4346 0012787 346.9506  13.1286 14.20595294596437

AllMySatでSL-16 DEBをリアルタイム追跡

Download on the App Store